Main page
Satellite images Climate Cyclones Lightning AirportsFAQ Languages Contact Newsletter About
Weather : Europe Africa North America South America Asia Australia-Oceania Others

, Ranong, Ranong Airport

48532

latitude: , longitude: Thailand, elevation: 09-59N m


METAR: VTSR 211500Z 00000KT 9999 FEW020 25/25 Q1012 NOSIG